Wind_Speed
44 44 40 41 44 44 44 46 46 45 49 53 51 51 44 39 37 37 38 38 37 37 37 37 37 38 38 38 39 41 43 44 43 41 42 42 41 41 40 40 42 46 49 49
45 42 40 42 43 44 45 47 47 47 49 52 52 51 47 44 38 37 36 36 36 36 36 38 40 39 39 39 40 41 43 45 44 41 41 41 42 42 42 43 46 50 52 52
44 41 40 42 42 43 45 46 47 48 48 51 55 53 48 44 41 35 33 32 28 29 33 38 44 44 43 44 44 45 45 45 43 40 40 42 43 43 44 47 49 51 54 53
48 43 42 42 42 44 48 45 47 48 50 53 53 55 49 48 44 39 36 28 25 29 33 39 45 47 46 46 47 48 48 46 43 42 42 42 42 44 47 50 51 53 55 54
48 46 45 45 43 44 48 45 46 48 51 57 54 58 55 51 46 39 36 32 31 30 34 40 45 48 47 46 46 47 47 45 44 44 43 42 43 45 48 51 52 55 55 57
48 48 46 44 43 44 46 46 47 50 52 58 57 59 55 48 45 42 37 36 38 37 38 43 47 49 48 45 45 46 46 45 45 44 43 43 45 48 51 52 54 56 57 57
51 50 48 46 45 46 46 46 49 53 55 60 58 59 50 47 50 47 38 37 38 35 38 43 48 51 50 45 42 44 46 47 47 47 46 47 51 53 54 55 57 57 58 59
51 51 48 47 46 49 51 50 50 53 57 63 62 60 54 58 54 46 38 35 35 36 40 44 49 53 50 46 44 45 48 49 50 51 51 52 56 58 58 58 59 59 59 60
50 53 53 53 54 54 57 56 54 54 58 64 65 62 62 64 59 46 42 41 39 37 38 44 51 55 51 48 46 48 50 51 52 54 55 56 59 59 59 59 60 60 61 61
52 55 55 56 57 60 58 58 59 58 58 63 65 64 67 71 59 47 45 47 45 45 43 46 54 55 53 50 47 47 49 51 54 55 56 57 59 60 62 62 62 63 64 64
57 60 62 62 63 62 62 62 63 62 63 64 62 62 67 67 59 52 51 49 46 49 48 51 56 59 55 49 49 50 48 51 54 56 57 57 59 62 63 63 64 66 68 68
62 63 65 65 64 64 65 63 62 63 63 64 68 66 63 59 61 57 52 51 51 54 52 55 59 61 58 52 51 52 51 55 57 58 59 59 61 63 63 64 65 67 68 70
67 69 69 67 64 66 66 62 63 65 67 71 74 71 56 57 58 52 51 51 54 57 57 59 61 63 60 57 56 54 56 58 59 60 61 62 64 63 61 62 66 67 69 72
70 72 71 68 62 66 66 64 66 71 75 76 76 76 58 51 50 50 51 52 55 57 60 62 64 62 59 60 59 57 59 60 60 61 61 62 62 61 61 64 68 70 73 76
69 70 70 71 67 65 66 69 65 69 74 77 77 77 63 50 48 49 53 57 60 62 61 59 60 58 60 62 60 59 61 61 60 61 61 62 60 59 64 69 72 75 80 83
68 70 71 75 73 71 70 68 64 61 63 68 70 68 56 54 53 56 57 58 58 58 59 61 64 66 67 65 65 63 61 60 60 60 60 60 59 63 68 72 77 80 82 84
59 60 59 60 59 61 62 57 52 52 52 55 61 58 53 54 58 58 56 56 55 56 59 63 64 65 66 66 65 62 60 61 61 59 58 59 64 67 71 75 78 79 81 83
69 68 68 69 71 80 69 60 59 60 58 54 58 56 56 61 62 62 58 57 59 59 58 57 55 56 58 59 59 59 61 63 62 60 60 64 68 72 74 75 75 76 79 82
83 81 77 76 82 84 84 73 71 75 75 71 71 66 65 57 58 62 58 59 59 57 55 54 52 50 51 52 56 58 61 63 64 64 67 69 70 71 71 72 73 73 76 79
87 83 83 84 88 93 88 82 83 81 77 76 70 57 50 54 62 60 59 55 53 51 50 51 52 55 56 55 57 61 62 65 70 72 70 69 68 67 68 68 69 71 74 76
87 86 87 89 90 92 85 81 86 89 88 77 60 56 56 55 59 62 66 67 67 66 66 68 70 66 62 59 60 61 65 69 72 71 68 66 66 64 66 67 68 68 70 72
87 89 92 90 87 89 84 83 91 95 92 81 70 65 62 59 59 60 63 64 68 74 72 66 65 65 62 60 60 61 66 70 73 72 68 66 66 65 65 67 68 70 70 70
88 85 88 93 92 90 87 85 87 86 83 80 78 71 71 71 68 62 67 69 66 67 66 67 65 62 65 67 63 60 62 68 72 71 66 66 69 63 61 65 68 70 70 69
76 76 79 88 91 87 79 80 82 81 79 77 76 80 82 76 74 73 74 77 75 75 71 70 69 67 70 73 76 77 72 69 69 68 66 65 68 62 60 65 67 68 67 68
75 69 69 73 74 72 73 76 76 75 73 72 73 86 95 92 87 84 82 77 75 81 80 76 75 71 73 70 67 69 69 65 64 69 68 67 64 60 62 63 63 65 66 67
75 75 83 88 79 69 67 71 79 78 77 76 83 94 95 91 87 79 71 73 79 83 85 83 81 71 72 71 61 62 60 60 63 66 64 60 56 55 58 59 58 60 62 64
Wind_Direction
285 284 286 284 283 286 287 287 288 289 288 288 289 288 292 292 293 295 294 292 289 284 285 289 290 290 291 292 293 292 293 295 296 292 288 287 287 287 286 285 283 282 285 287
284 286 287 285 286 287 287 288 289 288 288 289 288 287 292 295 297 296 293 291 288 283 281 284 287 289 289 290 293 296 296 296 294 292 290 285 284 284 283 282 283 284 286 286
282 285 286 287 289 290 289 290 290 288 288 288 288 289 294 298 300 298 296 295 288 280 277 280 282 284 287 290 292 295 297 295 292 290 288 282 279 278 278 280 283 285 285 286
279 282 283 284 287 287 287 289 290 291 291 291 294 296 298 301 304 307 305 298 291 287 282 279 279 281 287 291 292 294 296 294 290 286 282 278 275 276 279 283 285 285 284 288
278 279 279 280 282 282 285 287 288 289 291 294 300 300 300 302 306 311 308 304 302 294 288 284 283 284 286 289 291 293 294 291 288 285 281 277 274 275 280 286 289 286 285 288
277 278 278 278 279 280 283 284 284 285 290 294 301 298 296 302 304 306 307 303 305 300 291 290 290 290 289 291 291 291 292 290 288 286 283 279 278 281 284 285 286 286 286 290
274 274 276 277 279 279 280 281 282 285 291 293 294 292 296 302 301 304 304 299 303 296 293 292 290 290 292 294 290 289 289 289 287 286 284 283 284 285 286 287 287 285 286 291
274 275 276 276 277 278 278 277 278 284 288 287 287 289 297 297 296 302 306 303 308 302 295 290 287 288 293 297 294 290 288 287 285 283 283 285 286 286 287 287 285 283 284 291
276 275 275 275 275 274 276 278 279 278 280 283 288 292 294 292 292 300 306 303 307 305 295 289 288 289 293 296 297 293 291 288 283 281 282 283 285 286 285 284 283 283 286 292
273 271 269 269 270 271 273 276 277 278 279 280 286 289 289 288 293 300 305 302 304 302 294 289 288 291 295 298 299 295 292 286 281 281 282 284 286 285 284 284 283 285 289 294
274 274 274 274 273 274 274 274 275 276 278 280 285 282 283 290 298 300 301 299 299 297 295 291 292 294 295 297 300 297 292 284 281 282 284 285 284 282 282 283 284 285 289 293
273 272 269 270 273 273 272 275 277 277 279 280 278 282 291 297 296 297 298 297 293 290 291 287 285 288 291 293 296 296 288 283 281 282 284 284 282 281 281 284 287 290 292 294
273 273 273 272 272 273 273 276 276 275 275 275 274 286 298 296 295 296 295 293 288 287 286 283 282 285 289 291 293 290 284 282 283 283 282 280 278 280 284 288 291 293 295 295
271 270 271 274 276 275 271 272 274 272 273 276 279 287 294 295 295 289 287 285 285 285 285 284 283 285 287 288 288 285 284 284 282 281 280 277 277 282 288 291 294 296 297 297
267 266 266 268 270 268 266 271 273 272 275 279 284 286 292 294 286 280 283 284 285 288 289 288 286 285 285 286 286 287 286 284 281 281 280 279 281 288 291 292 294 296 297 296
266 265 265 265 267 267 267 269 271 273 278 281 284 285 291 288 284 284 287 287 287 288 288 289 290 290 291 291 289 288 285 283 281 279 278 280 285 293 295 295 295 295 295 296
266 262 264 268 268 266 263 267 268 267 268 278 284 289 291 291 291 289 287 287 291 288 285 286 288 289 290 289 289 288 286 283 280 278 279 286 292 292 292 293 294 295 296 298
270 269 269 271 271 271 266 267 270 272 274 280 287 290 295 295 291 287 288 290 291 288 287 288 289 290 289 290 289 287 285 281 277 278 283 289 290 291 293 294 296 298 299 301
275 276 274 273 273 274 276 274 277 280 277 278 286 290 294 293 287 286 288 287 290 287 286 288 290 293 294 294 291 289 283 274 274 282 286 287 288 290 292 294 295 298 301 304
275 273 269 269 272 274 277 281 283 283 282 290 292 292 285 280 284 288 285 285 289 289 287 288 292 300 300 297 292 286 280 279 283 286 286 287 288 288 290 293 295 298 301 304
273 272 272 275 275 276 278 279 279 277 286 293 286 281 281 276 280 284 284 282 278 281 288 293 295 298 294 288 282 278 281 280 280 283 287 286 285 286 289 292 294 299 301 303
266 269 270 270 269 271 278 278 278 282 285 283 283 287 282 278 279 281 281 280 278 281 288 293 297 296 287 281 282 285 280 278 279 283 284 284 284 286 288 292 297 299 301 303
271 274 271 267 270 274 278 281 283 282 279 279 283 288 286 283 281 281 282 281 279 280 291 298 298 293 286 281 283 284 283 281 279 283 283 284 283 284 289 294 296 298 299 301
271 272 269 271 275 276 278 280 279 278 277 278 278 282 289 287 283 282 282 280 278 280 288 296 296 291 286 284 283 284 280 280 281 278 278 280 280 284 292 292 292 294 296 300
261 259 262 269 271 273 277 276 276 272 267 271 276 284 292 292 286 281 279 278 276 278 282 290 295 290 287 284 281 279 274 277 283 280 279 285 286 284 289 291 293 295 298 301
256 259 264 269 267 267 267 266 267 264 261 265 273 280 285 287 284 278 273 277 279 280 282 287 291 290 286 281 279 278 278 284 290 288 285 284 284 286 288 289 291 295 298 301
Height
5836 5837 5839 5836 5833 5831 5828 5825 5823 5822 5814 5806 5805 5801 5807 5810 5808 5804 5800 5794 5789 5785 5782 5779 5776 5773 5770 5767 5764 5760 5756 5751 5748 5745 5742 5739 5738 5736 5734 5733 5731 5728 5726 5723
5826 5828 5829 5825 5823 5820 5817 5814 5813 5810 5805 5796 5792 5790 5794 5795 5798 5795 5789 5786 5781 5777 5773 5770 5766 5763 5760 5757 5753 5748 5744 5740 5737 5734 5731 5728 5726 5724 5722 5719 5718 5716 5713 5710
5816 5819 5818 5815 5813 5810 5806 5805 5802 5797 5794 5788 5780 5779 5782 5784 5783 5784 5780 5775 5771 5768 5765 5760 5755 5752 5749 5745 5741 5737 5733 5729 5726 5723 5719 5716 5714 5712 5708 5706 5704 5701 5697 5694
5806 5809 5809 5806 5804 5801 5795 5797 5792 5786 5781 5774 5774 5763 5771 5771 5770 5770 5766 5763 5761 5758 5755 5750 5744 5740 5738 5735 5731 5727 5723 5718 5714 5711 5707 5705 5702 5699 5697 5694 5689 5684 5680 5677
5797 5797 5796 5795 5794 5791 5785 5785 5781 5775 5769 5761 5763 5755 5754 5756 5756 5759 5755 5751 5750 5748 5743 5737 5732 5728 5726 5724 5720 5716 5711 5707 5702 5699 5696 5692 5688 5685 5682 5678 5674 5669 5665 5660
5786 5785 5784 5783 5781 5779 5774 5772 5769 5763 5760 5751 5752 5746 5739 5748 5745 5746 5747 5741 5737 5734 5728 5724 5719 5715 5712 5711 5707 5702 5698 5695 5691 5688 5685 5682 5678 5674 5669 5664 5660 5655 5650 5645
5773 5773 5772 5771 5769 5766 5764 5761 5756 5750 5748 5742 5739 5731 5731 5738 5734 5733 5733 5730 5726 5721 5716 5711 5705 5700 5697 5697 5695 5690 5686 5682 5679 5676 5673 5670 5666 5661 5655 5651 5646 5642 5637 5630
5757 5758 5760 5758 5758 5754 5748 5747 5745 5742 5736 5729 5726 5720 5724 5720 5720 5723 5722 5718 5715 5712 5707 5700 5694 5688 5685 5684 5681 5676 5671 5668 5665 5661 5659 5656 5652 5647 5641 5635 5631 5626 5620 5614
5745 5743 5745 5742 5741 5738 5733 5731 5732 5728 5723 5716 5711 5711 5711 5706 5706 5711 5709 5704 5701 5698 5694 5688 5680 5675 5672 5669 5666 5662 5658 5654 5650 5646 5643 5639 5636 5632 5628 5622 5616 5610 5605 5599
5728 5725 5726 5724 5724 5721 5721 5720 5714 5710 5709 5704 5703 5702 5699 5689 5695 5701 5697 5689 5685 5681 5678 5672 5664 5661 5658 5655 5651 5646 5643 5641 5635 5631 5627 5624 5621 5617 5612 5606 5600 5595 5589 5581
5711 5707 5706 5709 5708 5709 5704 5702 5699 5696 5692 5688 5687 5689 5688 5683 5686 5683 5680 5676 5673 5666 5661 5655 5650 5645 5641 5639 5637 5631 5627 5623 5619 5616 5612 5607 5604 5600 5595 5589 5584 5577 5570 5564
5691 5687 5684 5691 5693 5688 5685 5685 5684 5679 5674 5671 5662 5671 5682 5681 5671 5670 5666 5662 5656 5649 5646 5641 5635 5630 5627 5626 5622 5618 5613 5607 5602 5599 5596 5591 5586 5582 5578 5573 5568 5562 5554 5546
5671 5666 5663 5669 5675 5671 5668 5670 5668 5663 5657 5651 5641 5649 5674 5666 5657 5655 5651 5645 5638 5633 5630 5623 5618 5615 5613 5611 5607 5603 5598 5592 5588 5583 5579 5574 5569 5565 5561 5556 5551 5544 5536 5526
5649 5641 5642 5647 5656 5653 5647 5648 5649 5644 5635 5631 5628 5629 5649 5652 5647 5640 5635 5631 5625 5620 5615 5610 5605 5602 5599 5595 5591 5586 5582 5578 5572 5567 5562 5558 5553 5549 5544 5540 5534 5526 5517 5507
5627 5621 5621 5623 5632 5631 5626 5627 5633 5628 5619 5612 5614 5612 5624 5632 5628 5620 5617 5613 5610 5604 5600 5596 5592 5587 5583 5578 5574 5570 5567 5561 5556 5550 5546 5542 5537 5532 5527 5521 5514 5505 5497 5488
5607 5604 5600 5599 5608 5610 5605 5608 5615 5613 5609 5599 5591 5593 5612 5609 5606 5603 5602 5594 5592 5589 5582 5578 5574 5568 5563 5559 5555 5552 5548 5544 5539 5533 5529 5526 5520 5515 5509 5502 5494 5486 5478 5469
5590 5586 5580 5579 5584 5581 5577 5596 5596 5592 5591 5587 5579 5583 5592 5590 5587 5583 5581 5577 5577 5573 5567 5560 5557 5551 5545 5539 5535 5533 5530 5526 5521 5516 5512 5508 5503 5497 5490 5483 5475 5467 5460 5452
5572 5570 5563 5560 5560 5548 5565 5583 5582 5574 5573 5577 5571 5573 5575 5571 5567 5566 5564 5556 5556 5552 5548 5542 5538 5533 5528 5524 5521 5517 5513 5509 5504 5499 5495 5491 5486 5480 5473 5466 5458 5451 5444 5435
5552 5549 5542 5538 5530 5527 5538 5565 5569 5554 5545 5561 5561 5562 5558 5550 5539 5546 5545 5535 5534 5528 5524 5522 5518 5514 5510 5507 5504 5501 5498 5493 5488 5483 5478 5473 5468 5461 5455 5448 5442 5434 5425 5417
5531 5527 5521 5514 5505 5501 5523 5544 5547 5524 5511 5550 5548 5539 5537 5532 5518 5525 5524 5518 5515 5507 5504 5503 5500 5497 5495 5492 5487 5484 5480 5476 5471 5465 5459 5454 5447 5442 5437 5430 5422 5413 5405 5399
5508 5501 5494 5489 5479 5477 5501 5519 5515 5498 5510 5529 5523 5517 5515 5511 5505 5506 5505 5504 5498 5490 5485 5484 5481 5477 5474 5470 5468 5466 5461 5455 5449 5444 5438 5433 5428 5423 5419 5413 5402 5393 5386 5380
5484 5481 5475 5471 5462 5461 5484 5488 5480 5486 5496 5496 5498 5498 5495 5491 5490 5488 5484 5483 5479 5473 5467 5465 5462 5460 5458 5453 5450 5447 5442 5436 5430 5426 5421 5416 5410 5404 5400 5395 5387 5378 5370 5362
5451 5456 5455 5451 5446 5452 5458 5458 5459 5463 5465 5468 5469 5472 5470 5469 5469 5467 5465 5464 5461 5455 5451 5447 5445 5443 5440 5436 5432 5427 5423 5418 5412 5408 5404 5399 5395 5389 5384 5378 5371 5363 5354 5347
5425 5432 5428 5427 5433 5438 5437 5434 5434 5435 5435 5440 5442 5443 5442 5445 5447 5444 5444 5442 5440 5434 5430 5429 5427 5423 5421 5419 5414 5410 5405 5399 5394 5389 5386 5381 5376 5371 5367 5362 5354 5346 5338 5331
5407 5410 5409 5408 5414 5412 5411 5414 5412 5412 5410 5408 5409 5410 5416 5418 5418 5418 5416 5417 5417 5413 5409 5407 5406 5403 5402 5400 5394 5388 5384 5381 5376 5372 5367 5363 5359 5354 5350 5346 5339 5332 5324 5317
5394 5392 5389 5386 5391 5384 5384 5387 5389 5387 5388 5387 5385 5385 5388 5389 5389 5389 5388 5390 5391 5390 5388 5385 5385 5385 5381 5378 5374 5370 5365 5362 5358 5355 5349 5344 5340 5336 5333 5330 5324 5316 5310 5304